Zurück zum Katalog

STARLINK-37517

AktivKommunikationVLEO
NORAD 69254·PAYLOAD·🇺🇸 United States

Gestartet May 20, 2026 von Vandenberg Space Force Base

Loading…

Nächste Überflüge (nächste 24 Stunden)

TLE

AktuellSource: CelesTrak SupGP

Epoche: Sep 14, 2026, 21:10 UTC

1 69254C 26117S   26257.88243056 -.00070670  00000+0 -20887-2 0  2576
2 69254  53.1579 179.7168 0001400  87.8668  83.6928 15.34414395    11

Verfolge STARLINK-37517 in Echtzeit mit AllMySat

Download on the App Store